Content
SEND FEEDBACK

Daily
Averages
Monthly
Summary
United States of America

IOWA CITY, IOWA


Home > North America > United States > Iowa
Elevation: 661 feet     Latitude: 41 38N     Longitude: 091 32W

WEATHER
 
SELECT A DAY
Number of Records: 194,010;   Date Range: 7/1/96 - 12/17/14
 
SHARE

PRINT THIS DATA

[ ← Previous Day ]
WEATHER ALMANAC - FEBRUARY 5, 2013
[ Next Day → ]
[ °C ]   °F
Weather ElementAverageHighLow
Temperature30.4 °F37.4 °F (3:44 pm)19 °F (1:52 am)
Dewpoint24 °F28.9 °F (1:52 pm)16 °F (1:52 am)
Humidity77.4 %89 % (2:52 am)65 % (5:05 pm)
Barometer29.96 in30.15 in (11:52 pm)29.86 in (9:52 am)
Wind Speed10.6 mph17.3 mph (2:52 pm)
Wind Gust29.9 mph (5:52 pm)
Weather ElementAverage
Visibility9.1 mi
Wind DirectionW (269.3 °)

Weather ElementTotal
Precipitation---
Heating Degree Days36.8 (Base 65)
Averaged from 29 records on February 5, 2013
WEATHER CONDITIONS BREAKOUT
WIND DIRECTION BREAKOUT
WEATHER BY HOUR - FEBRUARY 5, 2013
[ °C ]   °F
Local TimeTemperatureDewpointHumidityBarometerVisibilityWind DirectionWind SpeedGust SpeedPrecipitationEventsConditions
1:52 AM19.0 °F16.0 °F88 %29.97 in7.0 miSouth (180°)4.6 mphOvercast
2:52 AM19.9 °F17.1 °F89 %29.95 in8.0 miSSW (200°)4.6 mphOvercast
3:52 AM21.0 °F17.1 °F85 %29.92 in9.0 miSouth (180°)5.8 mphOvercast
4:52 AM21.9 °F18.0 °F85 %29.90 in8.0 miSouth (170°)6.9 mphOvercast
5:52 AM21.9 °F18.0 °F85 %29.90 in8.0 miSouth (180°)5.8 mphOvercast
6:52 AM21.0 °F17.1 °F85 %29.88 in8.0 miSouth (180°)8.1 mphClear
7:52 AM19.9 °F17.1 °F89 %29.89 in6.0 miSouth (190°)3.5 mphClear
8:52 AM23.0 °F19.0 °F85 %29.88 in7.0 miSSW (210°)8.1 mphClear
9:52 AM27.0 °F21.0 °F78 %29.86 in7.0 miSW (230°)11.5 mphOvercast
10:52 AM30.9 °F24.1 °F76 %29.88 in8.0 miWest (270°)12.7 mphPartly Cloudy
11:52 AM33.1 °F26.1 °F75 %29.88 in9.0 miWest (280°)16.1 mphScattered Clouds
12:52 PM35.1 °F27.0 °F72 %29.89 in9.0 miWNW (290°)12.7 mph20.7 mphOvercast
1:18 PM35.6 °F28.4 °F75 %29.88 in9.0 miNW (310°)15.0 mphOvercast
1:34 PM35.6 °F28.4 °F75 %29.89 in10.0 miNW (310°)15.0 mph25.3 mphOvercast
1:52 PM36.0 °F28.9 °F76 %29.91 in10.0 miWNW (300°)13.8 mph19.6 mphMostly Cloudy
2:03 PM35.6 °F28.4 °F75 %29.89 in10.0 miWNW (300°)16.1 mph20.7 mphScattered Clouds
2:52 PM37.0 °F28.9 °F73 %29.94 in10.0 miWNW (300°)17.3 mph25.3 mphPartly Cloudy
3:44 PM37.4 °F28.4 °F70 %29.95 in10.0 miNW (310°)13.8 mphMostly Cloudy
3:52 PM37.0 °F28.9 °F73 %29.97 in10.0 miNW (320°)10.4 mph19.6 mphMostly Cloudy
4:35 PM37.4 °F28.4 °F70 %29.97 in10.0 miNW (310°)15.0 mph19.6 mphOvercast
4:52 PM37.0 °F28.0 °F70 %30.00 in10.0 miWNW (290°)16.1 mph20.7 mphOvercast
5:05 PM37.4 °F26.6 °F65 %29.98 in10.0 miNW (310°)12.7 mph23.0 mphOvercast
5:52 PM36.0 °F26.1 °F67 %30.02 in10.0 miNW (320°)16.1 mph29.9 mphOvercast
6:52 PM35.1 °F27.0 °F72 %30.05 in10.0 miNW (320°)9.2 mphClear
7:52 PM33.1 °F26.1 °F75 %30.07 in10.0 miWNW (300°)9.2 mphClear
8:52 PM30.9 °F25.0 °F79 %30.09 in10.0 miNW (310°)4.6 mphClear
9:52 PM30.0 °F25.0 °F82 %30.11 in10.0 miNW (310°)8.1 mphClear
10:52 PM30.0 °F24.1 °F79 %30.14 in10.0 miWNW (300°)8.1 mphClear
11:52 PM28.0 °F21.9 °F78 %30.15 in10.0 miNNW (330°)6.9 mphClear
Hourly data recorded from KIOW, located miles away from Iowa City, Iowa







STORIES FROM OUR PARTNERS